Weather Roundup
Issued by NWS

Home | Current Version | Previous Version | Graphics & Text | Print | Product List | Glossary Off
Versions: 1 2 3 4 5 6 7 8 9 10 11 12 13 14 15 16 17 18 19 20 21 22 23 24 25 26 27 28 29 30 31 32 33 34 35 36 37 38 39 40 41 42 43 44 45 46 47 48 49 50

129
NZUS93 KARX 291059
HRRWXR

CURRENT HOURLY OBSERVATIONS ACROSS
MUCH OF THE UPPER MISSISSIPPI VALLEY
NATIONAL WEATHER SERVICE LA CROSSE WI
600 AM CDT FRI APR 29 2016


...SOUTHEAST MINNESOTA...


CITY           SKY/WX    TMP DP  RH WIND       PRES   REMARKS
ROCHESTER      CLOUDY    37  36  96 N8        30.14R WCI  31
ROCHESTER/MAYO CLOUDY    37  37 100 N6        30.15S WCI  33
WINONA         CLOUDY    39  36  87 CALM      30.16R
AUSTIN         PTCLDY    36  34  93 CALM      30.13S
ALBERT LEA     NOT AVBL
DODGE CENTER   CLOUDY    36  36 100 N5        30.13F WCI  32
PRESTON        CLOUDY    35  34  95 CALM      30.14S FOG
OWATONNA       CLEAR     36  34  93 CALM      30.14F FOG
FARIBAULT      NOT AVBL
$$

...ELSEWHERE IN MINNESOTA...


CITY           SKY/WX    TMP DP  RH WIND       PRES   REMARKS
MINNEAPOLIS    CLOUDY    36  34  92 CALM      30.16F FOG
INTNL FALLS    CLEAR     35  30  82 N7        30.20R WCI  29
DULUTH         CLOUDY    31  25  78 N6        30.16R WCI  25
RED WING       MOCLDY    36  34  93 CALM      30.16R
REDWOOD FALLS  CLOUDY    37  35  92 CALM      30.17R
MANKATO        CLOUDY    37  34  87 NE7       30.15S WCI  32
WORTHINGTON    CLOUDY    38  36  92 NE9       30.14R WCI  31
FAIRMONT       CLOUDY    39  30  70 NE7       30.14R WCI  34
$$

...SOUTHWEST WISCONSIN...


CITY           SKY/WX    TMP DP  RH WIND       PRES   REMARKS
LA CROSSE      CLOUDY    40  36  86 NW5       30.15R
PRAIRIE DU CHI CLOUDY    41  37  85 N6        30.12S
BOSCOBEL       CLOUDY    41  38  89 N5        30.13R
LONE ROCK      NOT AVBL
PLATTEVILLE    CLOUDY    40  39  96 N6        30.10R
FORT MC COY    CLOUDY    38  37  99 CALM      30.14R
MAUSTON-NEW LI CLOUDY    38  37  95 NW5       30.10R FOG     WCI  35
VIROQUA        CLOUDY    37  37 100 N3        30.11R
WIS DELLS      CLOUDY    37  35  94 W3        30.10R
$$

...ELSEWHERE IN WISCONSIN...


CITY           SKY/WX    TMP DP  RH WIND       PRES   REMARKS
MILWAUKEE      CLOUDY    40  37  89 N7        30.07R
MADISON        CLOUDY    39  36  89 N6        30.09R WCI  35
GREEN BAY      CLOUDY    41  34  76 N6        30.10R
EAU CLAIRE     NOT AVBL
BLACK RVR FLS  CLOUDY    38  38 100 CALM      30.13R
MEDFORD        CLOUDY    35  35 100 N3        30.11S
WAUSAU         CLOUDY    40  35  83 N7        30.11R
WIS RAPIDS     CLOUDY    39  34  82 NE6       30.12R WCI  35
MARSHFIELD     CLOUDY    39  35  86 N6        30.10S WCI  35
RICE LAKE      PTCLDY    35  31  85 CALM      30.16F
$$

...NORTHEAST IOWA...


CITY           SKY/WX    TMP DP  RH WIND       PRES   REMARKS
WATERLOO       CLOUDY    42  39  89 N6        30.11S
DUBUQUE        CLOUDY    40  39  97 N7        30.10R
DECORAH        CLOUDY    39  39 100 N7        30.11S WCI  34
MASON CITY     CLOUDY    40  40 100 NE10      30.14R WCI  33
CHARLES CITY   CLOUDY    41  41 100 N8        30.13R
OELWEIN        CLOUDY    41  41 100 N7        30.12R
$$

...ELSEWHERE IN IOWA...


CITY           SKY/WX    TMP DP  RH WIND       PRES   REMARKS
DES MOINES     CLOUDY    47  42  83 N9        30.10S
IOWA CITY      CLOUDY    45  42  89 N7        30.12F
FORT DODGE     CLOUDY    41  36  81 CALM      30.13R
MARSHALLTOWN   CLOUDY    43  42  97 N5        30.12S
CEDAR RAPIDS   CLOUDY    43  43 100 NW3       30.10S
$$

...NORTHERN ILLINOIS...


CITY           SKY/WX    TMP DP  RH WIND       PRES   REMARKS
CHICAGO-OHARE  CLOUDY    42  41  96 N7        30.04R FOG
CHICAGO-MIDWAY CLOUDY    45  41  86 NW10      30.05R FOG
MOLINE         CLOUDY    46  42  86 NW7       30.10R FOG
ROCKFORD       CLOUDY    42  39  89 N8        30.10R
PEORIA         CLOUDY    50  47  89 N6        30.07R FOG
$$

NOTE: "FAIR" INDICATES FEW OR NO CLOUDS BELOW 12,000 FEET WITH NO
SIGNIFICANT WEATHER AND/OR OBSTRUCTIONS TO VISIBILITY. WIND
SPEEDS ARE IN MILES-PER-HOUR.




USA.gov is the U.S. government's official web portal to all federal, state and local government web resources and services.